Wind_Speed
79 85 90 95 100 103 104 103 99 94 91 89 88 88 89 91 93 97 102 107 110 111 109 107 104 101 98 95 92 89 85 81 78 74 71 68 65 62 59 56 54 51 51
83 88 94 98 100 100 97 91 86 83 82 82 83 84 85 86 87 89 92 97 101 106 109 110 109 107 104 101 98 95 91 87 83 79 75 72 70 66 63 59 56 54 52
86 92 96 98 97 93 87 83 81 80 80 81 81 82 84 85 87 88 89 91 94 99 104 108 111 111 110 107 104 101 97 93 89 85 80 77 74 70 67 63 60 57 54
90 94 96 95 91 85 81 80 79 79 79 79 78 78 79 80 83 86 88 89 91 94 98 104 109 112 114 113 110 107 103 99 95 90 86 81 78 74 71 67 64 60 57
91 94 93 90 84 80 79 78 76 78 77 74 72 70 68 68 71 75 82 87 90 91 94 99 106 112 116 116 115 112 108 104 100 96 91 86 82 79 75 72 67 64 60
91 92 90 85 80 78 78 76 75 76 74 71 67 63 60 60 62 65 70 78 85 89 92 97 103 110 116 118 118 117 113 109 105 101 96 91 86 83 79 76 72 68 64
91 90 85 80 78 77 76 74 75 73 69 67 63 58 53 53 53 55 60 67 75 84 90 95 101 107 114 118 120 120 117 114 110 105 101 96 91 87 83 80 76 72 68
89 86 81 78 77 76 75 74 74 71 66 63 60 57 50 43 41 42 47 56 67 79 86 91 98 104 110 116 121 122 121 118 114 110 106 101 96 91 87 84 80 76 72
86 83 79 76 75 75 74 73 72 69 64 57 54 53 50 44 33 29 34 45 58 72 81 87 92 98 105 112 119 123 123 122 118 114 110 105 101 95 90 87 84 80 75
84 81 77 75 74 74 74 73 71 68 62 55 48 45 43 41 33 21 22 34 48 63 75 81 85 91 99 106 114 121 124 124 122 118 114 110 105 100 94 90 87 83 78
81 78 75 74 73 73 73 72 69 65 58 52 46 41 37 33 29 22 16 24 38 53 67 74 77 81 89 98 107 115 122 125 124 122 118 113 109 104 98 94 90 87 82
79 76 74 73 72 72 72 70 68 62 55 49 43 38 34 30 25 20 15 18 29 44 57 67 72 75 79 87 97 107 117 123 125 124 121 117 112 107 102 97 93 90 86
77 74 72 72 71 71 70 70 67 61 53 46 40 35 31 28 24 20 15 15 23 35 49 60 68 71 74 79 87 98 109 118 123 125 123 120 115 110 105 100 96 92 88
76 73 71 71 70 70 70 69 66 60 52 45 39 34 29 25 22 19 15 14 19 29 42 53 62 67 69 72 78 87 99 110 119 124 125 122 118 113 109 103 98 94 91
75 72 70 70 69 69 69 68 65 59 52 45 38 32 28 23 20 17 15 13 17 25 36 47 57 63 65 66 68 75 86 100 112 120 124 124 120 116 111 106 101 97 93
74 71 69 69 69 68 68 67 64 59 52 45 38 32 26 22 19 17 14 13 15 22 32 42 51 59 61 61 62 65 74 87 102 114 121 123 122 118 114 109 104 100 96
73 71 69 68 68 67 67 66 64 58 52 45 39 32 27 21 18 16 14 13 14 20 28 37 46 54 57 58 58 59 65 76 92 105 116 122 123 120 116 112 107 102 98
72 70 68 68 67 67 65 64 62 58 51 45 38 32 27 21 17 15 13 12 13 17 24 32 41 49 53 55 54 55 58 67 81 96 109 118 122 121 118 114 110 105 101
71 69 67 67 66 66 64 63 61 57 51 45 39 33 27 21 17 14 13 11 11 14 20 28 36 43 49 52 52 52 53 60 72 87 102 113 119 120 118 115 112 107 103
70 68 66 66 65 65 63 62 60 57 51 46 40 34 27 22 17 14 12 10 9 12 17 24 31 38 44 48 49 50 50 54 65 79 93 106 115 119 118 116 112 109 104
69 67 65 65 64 64 62 60 59 56 52 47 41 35 29 23 19 15 12 9 8 10 14 20 26 33 39 43 46 47 47 50 58 72 86 99 109 116 118 116 114 111 107
68 66 64 64 63 62 61 60 59 57 52 47 41 35 30 24 20 16 12 9 7 8 11 17 23 29 34 39 42 44 45 47 53 66 79 92 104 111 115 116 114 111 108
68 65 63 62 62 61 60 59 56 55 52 47 41 35 30 26 21 17 13 9 7 6 8 13 19 25 30 34 38 40 42 44 49 60 72 84 97 105 112 114 114 112 109
68 65 62 61 60 60 59 57 55 53 51 47 41 36 30 26 22 18 14 10 7 5 5 10 15 21 26 31 35 37 39 41 47 56 67 77 90 99 106 111 113 112 109
67 65 62 60 59 59 58 56 54 51 50 46 41 36 30 26 23 19 16 13 9 6 3 5 10 16 22 28 32 35 37 40 46 54 64 73 83 93 100 107 110 110 109
67 64 62 59 58 57 57 55 54 50 49 46 41 36 31 26 23 20 17 15 12 9 5 2 4 10 16 23 28 32 35 40 47 54 61 69 77 87 93 101 107 109 107
Wind_Direction
310 309 307 305 303 301 299 297 295 293 289 285 282 278 273 269 265 261 257 254 251 247 243 239 236 234 233 232 231 230 229 228 227 226 225 224 224 224 224 224 223 223 222
312 311 309 308 306 305 304 303 300 297 293 289 285 280 275 270 264 259 254 250 247 245 241 238 235 232 231 230 229 228 227 226 226 225 224 223 222 222 223 223 222 222 222
315 313 313 312 311 310 309 307 304 302 299 295 290 284 278 271 265 259 253 248 244 241 238 235 232 230 228 227 227 227 226 225 224 223 223 222 221 220 221 221 221 221 221
317 317 316 316 315 315 313 311 309 306 304 300 295 289 283 275 267 259 252 247 242 238 234 231 229 227 225 224 224 224 224 223 222 222 221 221 220 219 219 220 220 220 220
321 321 320 320 319 318 317 315 313 311 309 305 300 295 289 280 270 260 252 245 240 236 232 228 226 224 222 222 221 222 222 222 221 220 220 219 218 217 217 218 218 219 218
324 324 324 323 323 322 321 319 317 317 314 311 307 303 296 287 275 263 252 244 238 233 229 226 223 221 220 219 219 219 219 220 219 219 218 218 217 216 215 215 216 217 217
327 328 327 327 326 325 325 323 322 322 319 316 313 309 304 297 284 267 252 242 234 230 227 224 221 219 218 217 217 217 217 218 218 217 217 217 216 215 214 214 214 216 216
331 331 330 330 329 329 328 327 327 326 324 321 319 317 315 308 295 274 253 239 230 225 224 222 219 218 217 216 215 215 215 216 216 216 216 215 215 214 213 212 213 214 215
334 333 333 332 332 332 332 331 331 329 328 326 323 323 324 324 314 285 255 236 228 223 221 220 219 217 215 215 214 213 213 213 214 214 214 214 214 213 212 212 211 212 214
336 336 335 335 335 335 335 334 334 332 330 328 326 325 327 330 329 308 262 238 226 221 219 218 218 216 215 215 214 213 212 212 212 213 213 213 213 212 211 211 210 210 212
339 338 338 338 337 337 338 337 337 335 332 329 328 327 328 331 331 323 284 244 228 221 217 216 216 216 216 215 215 214 212 211 211 211 211 212 212 211 211 210 209 209 210
341 340 340 340 340 340 340 340 339 337 335 331 328 326 326 329 330 325 302 257 232 222 217 215 214 215 216 216 215 214 213 210 210 210 210 210 210 210 210 209 209 209 209
343 343 343 342 342 342 342 343 342 340 337 333 329 325 323 323 324 322 305 267 238 224 217 214 213 214 215 215 215 215 214 211 209 209 209 209 209 209 209 209 209 208 208
345 345 345 345 344 345 345 345 345 343 340 336 331 326 321 317 317 315 305 274 241 226 218 214 213 213 215 215 216 216 215 213 210 208 208 208 208 208 208 208 208 208 208
347 347 347 347 347 347 347 348 348 346 344 339 334 328 322 315 309 307 299 278 246 227 219 215 213 213 214 215 216 217 216 214 212 209 207 207 207 207 207 207 207 207 207
349 349 349 349 349 349 350 350 350 349 347 343 339 333 325 317 307 302 293 277 251 230 221 217 214 213 214 215 216 217 217 216 213 210 208 206 206 206 206 206 206 206 207
350 350 350 351 351 351 352 353 353 352 351 348 343 338 331 321 310 301 291 276 255 234 222 219 216 214 213 214 215 217 217 217 214 211 209 206 205 205 205 205 205 206 206
352 352 352 352 353 353 354 355 355 355 354 352 349 344 338 329 318 306 293 278 257 237 224 219 217 214 213 214 215 217 218 217 215 213 210 207 205 204 204 204 204 205 205
353 353 353 353 354 355 355 356 357 357 357 356 354 351 346 339 327 314 300 284 261 238 225 219 217 214 214 214 215 217 219 218 216 213 211 208 206 204 203 203 204 204 205
354 354 354 354 355 356 357 357 358 359 359 359 357 355 352 347 337 324 308 290 268 241 224 217 215 214 214 214 215 217 219 219 216 213 211 209 206 204 203 203 203 203 204
355 355 355 355 356 357 357 358 360 1 2 1 359 358 356 351 346 336 320 301 277 246 224 215 213 213 214 214 215 217 219 219 216 213 210 208 207 204 203 202 202 203 204
356 356 355 356 357 358 358 359 0 2 2 2 1 0 359 356 352 345 334 317 292 256 228 216 212 211 212 214 215 217 219 219 215 211 209 208 207 205 203 202 202 202 203
356 357 356 357 358 359 359 0 1 2 3 3 3 2 2 1 359 355 347 335 313 274 238 220 213 210 210 212 214 216 217 217 213 209 207 206 206 204 203 202 202 202 203
357 358 358 358 358 359 0 1 2 3 4 4 4 5 5 5 6 5 3 355 342 314 259 227 215 211 210 211 213 214 215 213 209 205 204 203 204 204 203 202 202 202 203
357 358 359 359 359 0 1 1 3 3 4 5 5 7 7 7 9 11 11 8 3 353 317 241 218 211 210 210 211 211 211 208 202 199 199 199 201 202 203 202 202 202 203
357 358 359 359 360 0 1 2 3 4 5 6 6 7 8 9 11 13 13 14 13 9 360 317 230 212 208 207 206 206 204 200 195 192 193 194 197 199 201 202 202 203 203
Height
5708 5694 5679 5662 5644 5625 5606 5590 5575 5563 5552 5543 5536 5530 5527 5526 5529 5534 5543 5554 5567 5584 5603 5621 5637 5652 5666 5680 5693 5706 5718 5730 5741 5752 5763 5774 5784 5793 5800 5808 5815 5822 5828
5688 5673 5655 5635 5615 5595 5576 5560 5546 5534 5523 5514 5506 5499 5494 5492 5493 5497 5504 5515 5528 5543 5562 5583 5602 5620 5636 5652 5668 5682 5696 5710 5722 5734 5746 5758 5769 5779 5788 5797 5804 5812 5819
5668 5650 5630 5608 5587 5568 5550 5535 5521 5508 5496 5484 5474 5466 5460 5457 5457 5461 5468 5478 5491 5505 5523 5543 5564 5584 5604 5622 5639 5656 5672 5687 5701 5715 5728 5741 5753 5765 5776 5785 5794 5802 5809
5646 5627 5605 5584 5563 5544 5528 5512 5497 5483 5469 5455 5444 5434 5426 5421 5420 5424 5432 5442 5455 5470 5487 5506 5526 5548 5569 5590 5609 5628 5647 5664 5680 5695 5709 5723 5737 5750 5762 5772 5782 5791 5799
5626 5605 5583 5562 5542 5525 5508 5492 5476 5460 5444 5429 5417 5406 5396 5388 5385 5388 5395 5406 5420 5437 5454 5471 5489 5510 5533 5556 5579 5600 5620 5639 5657 5674 5690 5705 5719 5733 5747 5759 5770 5780 5789
5607 5585 5563 5542 5524 5507 5490 5473 5457 5440 5421 5405 5393 5382 5371 5361 5355 5356 5361 5372 5388 5404 5421 5437 5455 5475 5499 5524 5548 5571 5593 5614 5633 5652 5669 5686 5701 5716 5730 5744 5756 5768 5778
5589 5567 5545 5526 5508 5490 5472 5455 5438 5421 5404 5386 5372 5362 5353 5339 5330 5328 5333 5344 5357 5372 5387 5405 5423 5444 5468 5493 5517 5542 5566 5588 5609 5629 5647 5665 5682 5698 5714 5729 5742 5755 5766
5572 5550 5530 5511 5493 5475 5457 5439 5421 5404 5388 5371 5354 5342 5333 5326 5314 5307 5310 5318 5329 5343 5360 5378 5396 5418 5441 5465 5489 5515 5539 5562 5584 5605 5625 5644 5663 5680 5697 5713 5728 5741 5754
5557 5536 5516 5497 5479 5461 5443 5425 5407 5389 5374 5361 5344 5329 5317 5308 5302 5297 5295 5301 5310 5324 5339 5356 5376 5396 5418 5439 5462 5486 5511 5535 5558 5581 5603 5623 5643 5662 5680 5696 5712 5727 5740
5543 5523 5504 5485 5467 5449 5431 5413 5395 5376 5361 5349 5338 5326 5314 5302 5293 5290 5289 5290 5297 5308 5323 5340 5359 5378 5398 5417 5438 5460 5483 5508 5532 5556 5579 5601 5622 5643 5662 5680 5696 5712 5727
5532 5512 5493 5475 5457 5439 5421 5403 5385 5368 5352 5339 5329 5320 5312 5302 5293 5287 5284 5285 5290 5298 5310 5327 5345 5363 5380 5397 5415 5434 5456 5481 5506 5531 5556 5580 5602 5623 5643 5662 5680 5697 5713
5522 5503 5484 5466 5448 5430 5412 5395 5377 5360 5345 5333 5322 5314 5306 5299 5293 5287 5283 5282 5284 5290 5301 5316 5331 5346 5361 5376 5393 5411 5432 5456 5482 5508 5534 5558 5582 5605 5626 5646 5664 5682 5698
5514 5495 5477 5459 5441 5423 5405 5387 5370 5354 5339 5327 5317 5309 5302 5296 5291 5286 5282 5280 5281 5286 5294 5306 5319 5332 5346 5360 5376 5393 5412 5435 5460 5486 5512 5537 5562 5586 5609 5630 5649 5668 5684
5506 5488 5470 5452 5434 5417 5399 5381 5364 5348 5334 5322 5313 5305 5298 5293 5288 5284 5281 5279 5280 5283 5290 5299 5310 5323 5335 5349 5364 5380 5398 5418 5440 5464 5490 5517 5543 5567 5591 5613 5634 5653 5671
5499 5481 5464 5447 5429 5412 5394 5377 5360 5344 5330 5318 5308 5300 5294 5289 5286 5282 5279 5278 5278 5281 5286 5293 5303 5315 5328 5342 5356 5370 5386 5403 5423 5446 5471 5498 5523 5549 5573 5596 5618 5638 5657
5493 5476 5459 5442 5425 5407 5390 5373 5356 5340 5327 5315 5305 5297 5290 5286 5282 5280 5277 5276 5276 5278 5282 5288 5297 5308 5321 5335 5348 5361 5374 5389 5407 5429 5453 5478 5504 5530 5554 5579 5601 5622 5642
5488 5471 5454 5438 5421 5404 5387 5370 5354 5339 5325 5313 5302 5294 5288 5283 5280 5277 5275 5274 5274 5275 5280 5285 5293 5303 5316 5328 5340 5352 5364 5377 5393 5413 5435 5460 5485 5512 5537 5562 5585 5607 5628
5483 5466 5450 5434 5418 5402 5385 5369 5353 5338 5325 5313 5302 5293 5286 5281 5278 5275 5274 5273 5273 5274 5277 5282 5289 5299 5310 5322 5333 5344 5355 5367 5382 5400 5420 5444 5469 5495 5521 5546 5570 5592 5613
5480 5463 5447 5432 5416 5400 5384 5369 5354 5338 5325 5313 5302 5293 5286 5280 5277 5274 5273 5271 5271 5272 5274 5279 5286 5294 5305 5316 5327 5337 5347 5358 5371 5387 5407 5430 5454 5480 5505 5531 5555 5578 5600
5477 5461 5445 5430 5414 5399 5384 5369 5355 5340 5326 5314 5303 5294 5287 5281 5277 5274 5272 5271 5270 5271 5273 5277 5283 5291 5300 5310 5321 5330 5340 5349 5362 5376 5395 5416 5440 5465 5491 5517 5544 5566 5588
5475 5459 5444 5428 5413 5398 5384 5370 5355 5341 5327 5315 5305 5296 5288 5282 5277 5274 5272 5270 5270 5270 5272 5275 5280 5287 5296 5305 5314 5324 5333 5342 5353 5366 5384 5405 5429 5455 5479 5504 5527 5550 5573
5473 5457 5442 5427 5412 5397 5383 5369 5355 5341 5329 5318 5307 5298 5290 5284 5278 5275 5272 5270 5270 5270 5271 5274 5278 5284 5291 5299 5308 5317 5326 5334 5346 5359 5375 5395 5417 5442 5466 5491 5516 5540 5562
5472 5457 5442 5427 5412 5398 5384 5370 5356 5344 5332 5320 5310 5301 5293 5286 5280 5276 5273 5271 5270 5270 5271 5273 5276 5281 5287 5294 5302 5311 5319 5327 5338 5350 5366 5387 5408 5433 5457 5481 5504 5527 5550
5471 5456 5442 5427 5413 5399 5385 5372 5359 5347 5335 5324 5313 5304 5296 5289 5283 5279 5275 5273 5271 5270 5270 5272 5274 5278 5283 5289 5296 5304 5312 5321 5331 5344 5360 5380 5401 5425 5448 5471 5494 5517 5539
5470 5455 5441 5427 5413 5399 5386 5374 5362 5350 5339 5327 5317 5307 5299 5293 5287 5282 5278 5275 5273 5272 5271 5271 5273 5276 5279 5285 5291 5298 5307 5315 5326 5339 5354 5373 5394 5417 5439 5462 5485 5507 5529
5468 5454 5440 5426 5413 5400 5387 5375 5364 5353 5342 5331 5320 5311 5303 5296 5291 5286 5282 5278 5276 5274 5272 5272 5273 5274 5277 5281 5287 5294 5301 5311 5321 5335 5350 5369 5389 5410 5433 5454 5476 5497 5519